Regional Weather Roundup
Issued by NWS

Home | Current Version | Previous Version | Graphics & Text | Print | Product List | Glossary On
Versions: 1 2 3 4 5 6 7 8 9 10 11 12 13 14 15 16 17 18 19 20 21 22 23 24 25 26 27 28 29 30 31 32 33 34 35 36 37 38 39 40 41 42 43 44 45 46 47 48 49 50
000
ASUS43 KDMX 201507
RWRIA

WEATHER ROUNDUP FOR IOWA
NATIONAL WEATHER SERVICE DES MOINES IA
1000 AM CDT SAT SEP 20 2014

NOTE: "FAIR" INDICATES FEW OR NO CLOUDS BELOW 12,000 FEET WITH NO
SIGNIFICANT WEATHER AND/OR OBSTRUCTIONS TO VISIBILITY.

* - THESE STATIONS ARE NOT NWS STATIONS...THUS NOT UNDER NWS
QUALITY CONTROL.  THEY ALSO DO NOT REPORT WEATHER SUCH
AS PRECIPITATION OR FOG.

IAZ001>003-012>014-020>022-031>034-043>046-201600-
   NORTHWEST IOWA

CITY           SKY/WX    TMP DP  RH WIND       PRES   REMARKS
CARROLL *      MOSUNNY   70  68  94 W14G20    29.93R
CHEROKEE *     PTSUNNY   68  64  88 W5        29.91R
DENISON *      PTSUNNY   68  68 100 SW6       29.92R
LE MARS *      SUNNY     70  63  78 W5        29.92R
ORANGE CITY *  SUNNY     70  59  68 NW9       29.91R
SHELDON *      SUNNY     68  63  83 NW6       29.90R
SIOUX CITY     PTSUNNY   65  62  90 NW5       29.93S
SPENCER        PTSUNNY   70  62  76 W7        29.89R
STORM LAKE *   MOSUNNY   66  66 100 SW7       29.90F
$$

IAZ055>058-069>071-079>083-090>094-201600-
   SOUTHWEST IOWA

CITY           SKY/WX    TMP DP  RH WIND       PRES   REMARKS
ATLANTIC *     CLOUDY    68  66  94 CALM      29.91F
AUDUBON *      LGT RAIN  70  63  78 W7        29.94S
CLARINDA *     SUNNY     68  66  94 CALM      29.94R FOG
COUNCIL BLFS * SUNNY     68  68 100 W6        29.92S
CRESTON *      MOSUNNY   68  68 100 S6G13     29.91F FOG
HARLAN  *      MOSUNNY   70  66  88 W10       29.97S
LAMONI         CLOUDY    68  67  96 SW9       29.96R FOG
RED OAK *      SUNNY     68  63  83 SW9       29.93R
SHENANDOAH *   PTSUNNY   66  66 100 W5        29.93F
$$

IAZ047>049-059>061-072>074-084-201600-
   CENTRAL IOWA

CITY           SKY/WX    TMP DP  RH WIND       PRES   REMARKS
AMES           CLOUDY    71  66  84 W16G22    29.89R
ANKENY *       SUNNY     70  66  88 W5        29.90R
CHARITON *     SUNNY     70  68  94 SW12      29.91R FOG
DES MOINES     CLOUDY    72  67  84 W12       29.90R
GRINNELL*      CLOUDY    70  66  88 SW12      29.87F FOG
KNOXVILLE *    SUNNY     70  66  88 SW12      29.88R FOG
MARSHALLTOWN   CLOUDY    70  64  81 W21G29    29.86R
PELLA *        CLOUDY    72  68  88 SW7       29.89R FOG
PERRY *        PTSUNNY   72  66  83 W16       29.91R
$$

IAZ004>006-015-016-023>025-035-036-201600-
   NORTH CENTRAL IOWA

CITY           SKY/WX    TMP DP  RH WIND       PRES   REMARKS
ALGONA *       SUNNY     66  66 100 W9        29.88S
CLARION *      LGT RAIN  66  66 100 S10G16    29.86F
ESTHERVILLE    PTSUNNY   67  61  81 NW9       29.88R
FORT DODGE *   CLOUDY    66  64  94 S8        29.88F
MASON CITY     CLOUDY    66  64  93 W12       29.86F
FOREST CITY *  SUNNY     64  64 100 W8        29.84F
IOWA FALLS *   PTSUNNY   68  64  88 W15G26    29.89R
$$

IAZ007>011-017>019-026>030-037>042-050>054-066-201600-
   NORTHEAST IOWA

CITY           SKY/WX    TMP DP  RH WIND       PRES   REMARKS
CEDAR RAPIDS   CLOUDY    69  67  93 SW7       29.84R
CHARLES CITY * LGT RAIN  64  61  88 SW8G14    29.85S
CLINTON *      CLOUDY    68  63  83 SW13      29.87F
DECORAH *      MOSUNNY   66  63  88 VRB7G15   29.81S
DUBUQUE        CLOUDY    69  64  84 SW13      29.83S
MONTICELLO *   SUNNY     72  66  83 SW10      29.82F
OELWEIN *      PTSUNNY   68  64  88 NW10G17   29.85R
WATERLOO       CLOUDY    69  63  81 NW10      29.85R
$$

IAZ064-065-067-068-078-201600-
   EAST CENTRAL IOWA

CITY           SKY/WX    TMP DP  RH WIND       PRES   REMARKS
DAVENPORT      CLOUDY    67  63  87 SW7       29.85S
IOWA CITY      CLOUDY    70  67  90 W6        29.88R
MT. PLEASANT * CLOUDY    72  66  83 S14G20    29.86F
MUSCATINE *    MOSUNNY   70  64  83 CALM      29.85S
QUAD CITIES    CLOUDY    68  64  87 VRB6      29.85S
$$

IAZ062-063-075>077-085>089-095>099-201600-
   SOUTHEAST IOWA

CITY           SKY/WX    TMP DP  RH WIND       PRES   REMARKS
BURLINGTON     CLOUDY    70  65  84 SW14      29.89F
FAIRFIELD *    SUNNY     72  66  83 S14G20    29.83F
FORT MADISON * SUNNY     72  66  83 SW12      29.91F
KEOKUK *       SUNNY     70  66  88 SW12      29.92F
OSKALOOSA *      N/A     70  68  94 W10       29.90R
CENTERVILLE *  SUNNY     72  68  88 S14G20    29.91S
OTTUMWA        CLOUDY    70  66  87 SW12G18   29.87F
WASHINGTON *   SUNNY     70  68  94 SW13      29.85R
$$

ABBREVIATIONS USED IN REMARKS
   TC - TEMPERATURES IN CELSIUS
  WCI - WIND CHILL INDEX
   HX - HEAT INDEX
  VSB - VISIBILITY
$$



USA.gov is the U.S. government's official web portal to all federal, state and local government web resources and services.